contact: severine.martini@mio.osupytheas.fr, dominique.lefevre@mio.osupytheas.fr
Project:EMSO Ligure-ouest http://www.emso-fr.org/EMSO-France
Sensor Optode, line 4330 Serial 272 
DOI : "https://doi.org/10.17882/97948" 
Title:EMSO Ligure Ouest : Data BathyDock capteur Optode - deploiement "2023-04-28"
Datetime,Profondeur,Latitude,Longitude,optode_type,serial,O2_concentration,O2_saturation,Temperature,Calibrated_Phase,Temp_Compensated_Phase,phase_blue_light,phase_red_light,Amplitude_blue_light,Amplitude_red_light,thermistor_bridge
time,m,degree_north,degree_east,1,1,umol.l-1,%,degree_C,degree,degree,degree,degree,mV,mV,mV
2023-09-26T00:00:08,2420,42.8014,5.9826,4330,272,186.240,57.052,13.319,36.049,36.629,41.217,4.587,295.4,542.2,290.9
2023-09-26T00:03:07,2420,42.8014,5.9826,4330,272,186.415,57.112,13.324,36.036,36.616,41.206,4.590,295.4,542.2,290.8
2023-09-26T00:06:07,2420,42.8014,5.9826,4330,272,186.443,57.120,13.324,36.034,36.614,41.204,4.589,295.3,542.2,290.8
2023-09-26T00:09:07,2420,42.8014,5.9826,4330,272,186.554,57.148,13.320,36.029,36.609,41.205,4.596,295.4,542.2,290.9
2023-09-26T00:12:07,2420,42.8014,5.9826,4330,272,186.323,57.095,13.333,36.037,36.617,41.207,4.590,295.3,542.1,290.5
2023-09-26T00:15:08,2420,42.8014,5.9826,4330,272,186.601,57.168,13.324,36.024,36.604,41.203,4.599,295.5,542.2,290.8
2023-09-26T00:18:08,2420,42.8014,5.9826,4330,272,186.482,57.132,13.324,36.031,36.611,41.204,4.593,295.4,542.2,290.8
2023-09-26T00:21:08,2420,42.8014,5.9826,4330,272,186.337,57.098,13.332,36.037,36.617,41.207,4.591,295.4,542.2,290.5
2023-09-26T00:24:08,2420,42.8014,5.9826,4330,272,186.339,57.103,13.335,36.036,36.616,41.211,4.595,295.3,542.2,290.4
2023-09-26T00:27:08,2420,42.8014,5.9826,4330,272,186.579,57.157,13.320,36.027,36.607,41.200,4.593,295.4,542.2,290.9
2023-09-26T00:30:07,2420,42.8014,5.9826,4330,272,186.412,57.105,13.320,36.038,36.618,41.209,4.591,295.4,542.2,290.9
2023-09-26T00:33:07,2420,42.8014,5.9826,4330,272,186.146,57.034,13.328,36.051,36.631,41.222,4.590,295.4,542.2,290.6
2023-09-26T00:36:07,2420,42.8014,5.9826,4330,272,186.466,57.132,13.328,36.030,36.610,41.201,4.590,295.3,542.2,290.6
2023-09-26T00:39:07,2420,42.8014,5.9826,4330,272,186.432,57.121,13.328,36.033,36.613,41.202,4.589,295.3,542.2,290.6
2023-09-26T00:42:08,2420,42.8014,5.9826,4330,272,186.358,57.097,13.326,36.039,36.619,41.213,4.594,295.3,542.2,290.7
2023-09-26T00:45:08,2420,42.8014,5.9826,4330,272,186.559,57.157,13.325,36.025,36.606,41.202,4.597,295.4,542.1,290.7
2023-09-26T00:48:08,2420,42.8014,5.9826,4330,272,186.481,57.135,13.327,36.030,36.610,41.205,4.595,295.4,542.2,290.7
2023-09-26T00:51:08,2420,42.8014,5.9826,4330,272,186.231,57.057,13.325,36.047,36.627,41.220,4.592,295.3,542.2,290.7
2023-09-26T00:54:08,2420,42.8014,5.9826,4330,272,186.307,57.077,13.323,36.044,36.624,41.213,4.590,295.3,542.2,290.8
2023-09-26T00:57:08,2420,42.8014,5.9826,4330,272,186.418,57.116,13.327,36.034,36.614,41.207,4.592,295.3,542.2,290.7
2023-09-26T01:00:07,2420,42.8014,5.9826,4330,272,186.369,57.098,13.324,36.039,36.619,41.212,4.593,295.3,542.2,290.8
2023-09-26T01:03:07,2420,42.8014,5.9826,4330,272,186.494,57.135,13.323,36.031,36.611,41.207,4.596,295.4,542.2,290.8
2023-09-26T01:06:07,2420,42.8014,5.9826,4330,272,186.433,57.115,13.322,36.036,36.616,41.209,4.592,295.3,542.2,290.8
2023-09-26T01:09:07,2420,42.8014,5.9826,4330,272,186.565,57.151,13.319,36.029,36.609,41.198,4.589,295.3,542.2,290.9
2023-09-26T01:12:07,2420,42.8014,5.9826,4330,272,186.403,57.104,13.321,36.038,36.618,41.211,4.593,295.3,542.1,290.9
2023-09-26T01:15:07,2420,42.8014,5.9826,4330,272,186.533,57.140,13.318,36.031,36.611,41.201,4.590,295.3,542.2,291.0
2023-09-26T01:18:08,2420,42.8014,5.9826,4330,272,186.589,57.158,13.318,36.027,36.607,41.198,4.590,295.4,542.2,291.0
2023-09-26T01:21:08,2420,42.8014,5.9826,4330,272,186.478,57.122,13.317,36.035,36.615,41.209,4.594,295.3,542.2,291.0
2023-09-26T01:24:08,2420,42.8014,5.9826,4330,272,186.469,57.121,13.319,36.035,36.615,41.207,4.592,295.3,542.2,290.9
2023-09-26T01:27:08,2420,42.8014,5.9826,4330,272,186.755,57.214,13.322,36.015,36.595,41.185,4.590,295.3,542.2,290.8
2023-09-26T01:30:08,2420,42.8014,5.9826,4330,272,186.698,57.192,13.319,36.020,36.600,41.190,4.590,295.4,542.2,290.9
2023-09-26T01:33:07,2420,42.8014,5.9826,4330,272,186.495,57.128,13.317,36.034,36.614,41.207,4.593,295.3,542.2,291.0
2023-09-26T01:36:07,2420,42.8014,5.9826,4330,272,186.490,57.126,13.318,36.034,36.614,41.208,4.594,295.3,542.2,291.0
2023-09-26T01:39:07,2420,42.8014,5.9826,4330,272,186.647,57.177,13.320,36.023,36.603,41.194,4.591,295.3,542.2,290.9
2023-09-26T01:42:07,2420,42.8014,5.9826,4330,272,186.652,57.177,13.318,36.023,36.603,41.202,4.598,295.3,542.2,290.9
2023-09-26T01:45:07,2420,42.8014,5.9826,4330,272,186.449,57.115,13.318,36.036,36.617,41.209,4.592,295.3,542.2,291.0
2023-09-26T01:48:07,2420,42.8014,5.9826,4330,272,186.498,57.127,13.316,36.035,36.615,41.207,4.592,295.3,542.2,291.0
2023-09-26T01:51:08,2420,42.8014,5.9826,4330,272,186.789,57.219,13.318,36.015,36.595,41.190,4.595,295.3,542.2,291.0
2023-09-26T01:54:08,2420,42.8014,5.9826,4330,272,186.792,57.218,13.317,36.015,36.595,41.192,4.598,295.3,542.2,291.0
2023-09-26T01:57:08,2420,42.8014,5.9826,4330,272,186.724,57.195,13.315,36.020,36.600,41.193,4.593,295.3,542.2,291.1
2023-09-26T02:00:08,2420,42.8014,5.9826,4330,272,186.656,57.177,13.318,36.023,36.603,41.196,4.593,295.3,542.3,291.0
2023-09-26T02:03:07,2420,42.8014,5.9826,4330,272,186.507,57.131,13.317,36.034,36.614,41.208,4.594,295.3,542.3,291.0
2023-09-26T02:06:07,2420,42.8014,5.9826,4330,272,186.607,57.159,13.315,36.028,36.608,41.203,4.595,295.3,542.3,291.1
2023-09-26T02:09:07,2420,42.8014,5.9826,4330,272,186.580,57.152,13.316,36.029,36.609,41.205,4.596,295.4,542.3,291.0
2023-09-26T02:12:07,2420,42.8014,5.9826,4330,272,186.626,57.167,13.317,36.026,36.606,41.200,4.594,295.3,542.3,291.0
2023-09-26T02:15:07,2420,42.8014,5.9826,4330,272,186.479,57.124,13.318,36.035,36.615,41.208,4.594,295.3,542.3,291.0
2023-09-26T02:18:07,2420,42.8014,5.9826,4330,272,186.669,57.178,13.315,36.023,36.603,41.194,4.591,295.4,542.2,291.0
2023-09-26T02:21:07,2420,42.8014,5.9826,4330,272,186.412,57.097,13.313,36.042,36.622,41.216,4.594,295.4,542.3,291.1
2023-09-26T02:24:07,2420,42.8014,5.9826,4330,272,186.628,57.164,13.314,36.027,36.607,41.204,4.597,295.4,542.3,291.1
2023-09-26T02:27:07,2420,42.8014,5.9826,4330,272,186.624,57.162,13.313,36.028,36.608,41.202,4.594,295.4,542.2,291.1
2023-09-26T02:30:08,2420,42.8014,5.9826,4330,272,186.729,57.196,13.315,36.019,36.600,41.192,4.592,295.3,542.2,291.1
2023-09-26T02:33:07,2420,42.8014,5.9826,4330,272,186.492,57.126,13.317,36.034,36.614,41.204,4.590,295.3,542.3,291.0
2023-09-26T02:36:07,2420,42.8014,5.9826,4330,272,186.479,57.119,13.315,36.036,36.616,41.207,4.590,295.3,542.3,291.1
2023-09-26T02:39:07,2420,42.8014,5.9826,4330,272,186.431,57.101,13.312,36.041,36.621,41.210,4.589,295.3,542.2,291.2
2023-09-26T02:42:08,2420,42.8014,5.9826,4330,272,186.652,57.169,13.312,36.026,36.606,41.198,4.592,295.3,542.3,291.2
2023-09-26T02:45:08,2420,42.8014,5.9826,4330,272,186.528,57.132,13.313,36.034,36.614,41.209,4.594,295.3,542.3,291.1
2023-09-26T02:48:08,2420,42.8014,5.9826,4330,272,186.838,57.225,13.311,36.014,36.594,41.194,4.599,295.2,542.3,291.2
2023-09-26T02:51:08,2420,42.8014,5.9826,4330,272,186.678,57.177,13.312,36.025,36.605,41.198,4.593,295.3,542.4,291.2
2023-09-26T02:54:08,2420,42.8014,5.9826,4330,272,186.718,57.190,13.313,36.022,36.602,41.197,4.596,295.4,542.4,291.1
2023-09-26T02:57:08,2420,42.8014,5.9826,4330,272,186.614,57.157,13.312,36.029,36.609,41.204,4.595,295.3,542.4,291.2
2023-09-26T03:00:08,2420,42.8014,5.9826,4330,272,186.668,57.176,13.313,36.025,36.605,41.201,4.596,295.4,542.3,291.1
2023-09-26T03:03:07,2420,42.8014,5.9826,4330,272,186.557,57.138,13.310,36.033,36.613,41.206,4.593,295.3,542.3,291.2
2023-09-26T03:06:07,2420,42.8014,5.9826,4330,272,186.735,57.191,13.309,36.022,36.603,41.196,4.594,295.4,542.3,291.2
2023-09-26T03:09:07,2420,42.8014,5.9826,4330,272,186.612,57.153,13.309,36.030,36.611,41.205,4.594,295.3,542.3,291.3
2023-09-26T03:12:07,2420,42.8014,5.9826,4330,272,186.597,57.148,13.309,36.031,36.611,41.204,4.593,295.3,542.3,291.3
2023-09-26T03:15:07,2420,42.8014,5.9826,4330,272,186.590,57.148,13.311,36.031,36.611,41.205,4.594,295.3,542.3,291.2
2023-09-26T03:18:07,2420,42.8014,5.9826,4330,272,186.598,57.149,13.310,36.031,36.611,41.204,4.592,295.4,542.3,291.2
2023-09-26T03:21:08,2420,42.8014,5.9826,4330,272,186.712,57.183,13.309,36.024,36.604,41.197,4.593,295.3,542.3,291.3
2023-09-26T03:24:08,2420,42.8014,5.9826,4330,272,186.687,57.177,13.310,36.025,36.605,41.196,4.592,295.3,542.2,291.2
2023-09-26T03:27:08,2420,42.8014,5.9826,4330,272,186.795,57.210,13.310,36.018,36.599,41.195,4.597,295.3,542.3,291.2
2023-09-26T03:30:08,2420,42.8014,5.9826,4330,272,186.597,57.146,13.307,36.032,36.613,41.205,4.593,295.2,542.3,291.3
2023-09-26T03:33:07,2420,42.8014,5.9826,4330,272,186.657,57.169,13.311,36.027,36.607,41.199,4.593,295.3,542.3,291.2
2023-09-26T03:36:07,2420,42.8014,5.9826,4330,272,186.487,57.114,13.309,36.039,36.619,41.214,4.595,295.2,542.3,291.3
2023-09-26T03:39:07,2420,42.8014,5.9826,4330,272,186.640,57.163,13.310,36.028,36.608,41.203,4.595,295.3,542.3,291.2
2023-09-26T03:42:07,2420,42.8014,5.9826,4330,272,186.836,57.224,13.311,36.015,36.595,41.194,4.599,295.2,542.3,291.2
2023-09-26T03:45:07,2420,42.8014,5.9826,4330,272,186.571,57.142,13.310,36.032,36.612,41.204,4.591,295.3,542.3,291.2
2023-09-26T03:48:07,2420,42.8014,5.9826,4330,272,186.768,57.202,13.310,36.019,36.599,41.193,4.593,295.3,542.3,291.2
2023-09-26T03:51:07,2420,42.8014,5.9826,4330,272,186.898,57.241,13.309,36.012,36.592,41.188,4.596,295.3,542.3,291.3
2023-09-26T03:54:07,2420,42.8014,5.9826,4330,272,186.821,57.217,13.309,36.017,36.597,41.188,4.591,295.3,542.3,291.3
2023-09-26T03:57:07,2420,42.8014,5.9826,4330,272,186.807,57.214,13.310,36.017,36.598,41.190,4.592,295.3,542.3,291.2
2023-09-26T04:00:07,2420,42.8014,5.9826,4330,272,186.621,57.153,13.307,36.031,36.611,41.200,4.590,295.3,542.4,291.3
2023-09-26T04:03:07,2420,42.8014,5.9826,4330,272,186.648,57.162,13.307,36.029,36.609,41.204,4.595,295.3,542.3,291.3
2023-09-26T04:06:07,2420,42.8014,5.9826,4330,272,186.720,57.185,13.308,36.024,36.604,41.196,4.592,295.3,542.2,291.3
2023-09-26T04:09:07,2420,42.8014,5.9826,4330,272,186.559,57.137,13.309,36.033,36.614,41.205,4.591,295.3,542.3,291.2
2023-09-26T04:12:07,2420,42.8014,5.9826,4330,272,186.668,57.169,13.308,36.027,36.607,41.200,4.593,295.3,542.3,291.3
2023-09-26T04:15:07,2420,42.8014,5.9826,4330,272,186.768,57.200,13.308,36.021,36.601,41.192,4.591,295.3,542.3,291.3
2023-09-26T04:18:08,2420,42.8014,5.9826,4330,272,186.580,57.144,13.309,36.032,36.612,41.206,4.593,295.3,542.3,291.2
2023-09-26T04:21:08,2420,42.8014,5.9826,4330,272,186.640,57.161,13.309,36.029,36.609,41.200,4.591,295.3,542.3,291.3
2023-09-26T04:24:08,2420,42.8014,5.9826,4330,272,186.835,57.219,13.307,36.017,36.597,41.191,4.594,295.2,542.3,291.3
2023-09-26T04:27:08,2420,42.8014,5.9826,4330,272,186.561,57.138,13.309,36.034,36.614,41.211,4.597,295.3,542.3,291.3
2023-09-26T04:30:08,2420,42.8014,5.9826,4330,272,186.643,57.159,13.307,36.029,36.609,41.201,4.592,295.3,542.4,291.3
2023-09-26T04:33:07,2420,42.8014,5.9826,4330,272,186.861,57.225,13.306,36.015,36.596,41.188,4.593,295.3,542.3,291.4
2023-09-26T04:36:07,2420,42.8014,5.9826,4330,272,186.882,57.234,13.308,36.013,36.594,41.188,4.594,295.3,542.3,291.3
2023-09-26T04:39:07,2420,42.8014,5.9826,4330,272,186.976,57.264,13.308,36.007,36.588,41.182,4.594,295.4,542.3,291.3
2023-09-26T04:42:08,2420,42.8014,5.9826,4330,272,186.539,57.130,13.309,36.035,36.615,41.208,4.593,295.3,542.3,291.3
2023-09-26T04:45:08,2420,42.8014,5.9826,4330,272,186.749,57.194,13.308,36.022,36.602,41.196,4.594,295.3,542.3,291.3
2023-09-26T04:48:08,2420,42.8014,5.9826,4330,272,186.690,57.178,13.310,36.025,36.605,41.197,4.592,295.3,542.3,291.2
2023-09-26T04:51:08,2420,42.8014,5.9826,4330,272,186.754,57.200,13.312,36.019,36.600,41.198,4.598,295.3,542.3,291.2
2023-09-26T04:54:08,2420,42.8014,5.9826,4330,272,186.822,57.219,13.311,36.016,36.596,41.192,4.595,295.2,542.2,291.2
2023-09-26T04:57:08,2420,42.8014,5.9826,4330,272,186.709,57.181,13.308,36.025,36.605,41.197,4.591,295.3,542.4,291.3
2023-09-26T05:00:08,2420,42.8014,5.9826,4330,272,186.586,57.145,13.309,36.032,36.612,41.204,4.593,295.3,542.3,291.3
2023-09-26T05:03:07,2420,42.8014,5.9826,4330,272,187.029,57.280,13.308,36.004,36.584,41.178,4.594,295.2,542.3,291.3
2023-09-26T05:06:07,2420,42.8014,5.9826,4330,272,186.940,57.253,13.309,36.009,36.589,41.188,4.598,295.2,542.3,291.3
2023-09-26T05:09:07,2420,42.8014,5.9826,4330,272,186.599,57.148,13.309,36.031,36.611,41.202,4.591,295.3,542.3,291.3
2023-09-26T05:12:07,2420,42.8014,5.9826,4330,272,186.945,57.255,13.309,36.008,36.589,41.185,4.597,295.2,542.3,291.2
2023-09-26T05:15:07,2420,42.8014,5.9826,4330,272,186.817,57.216,13.309,36.017,36.597,41.190,4.593,295.3,542.3,291.3
2023-09-26T05:18:07,2420,42.8014,5.9826,4330,272,186.795,57.210,13.310,36.018,36.598,41.198,4.600,295.3,542.3,291.2
2023-09-26T05:21:07,2420,42.8014,5.9826,4330,272,186.922,57.245,13.307,36.011,36.591,41.183,4.592,295.2,542.3,291.3
2023-09-26T05:24:07,2420,42.8014,5.9826,4330,272,186.423,57.095,13.309,36.043,36.623,41.212,4.589,295.2,542.4,291.3
2023-09-26T05:27:07,2420,42.8014,5.9826,4330,272,187.023,57.280,13.310,36.003,36.583,41.174,4.591,295.2,542.4,291.2
2023-09-26T05:30:07,2420,42.8014,5.9826,4330,272,186.955,57.263,13.313,36.006,36.587,41.182,4.595,295.2,542.3,291.1
2023-09-26T05:33:07,2420,42.8014,5.9826,4330,272,186.780,57.203,13.308,36.020,36.600,41.193,4.593,295.2,542.3,291.3
2023-09-26T05:36:07,2420,42.8014,5.9826,4330,272,186.641,57.160,13.308,36.029,36.609,41.199,4.590,295.3,542.3,291.3
2023-09-26T05:39:07,2420,42.8014,5.9826,4330,272,186.446,57.104,13.311,36.041,36.621,41.212,4.592,295.3,542.2,291.2
2023-09-26T05:42:08,2420,42.8014,5.9826,4330,272,186.777,57.208,13.313,36.018,36.598,41.194,4.596,295.3,542.3,291.1
2023-09-26T05:45:08,2420,42.8014,5.9826,4330,272,186.651,57.162,13.307,36.029,36.609,41.200,4.591,295.3,542.3,291.3
2023-09-26T05:48:08,2420,42.8014,5.9826,4330,272,186.775,57.201,13.307,36.021,36.601,41.195,4.594,295.3,542.3,291.3
2023-09-26T05:51:08,2420,42.8014,5.9826,4330,272,186.665,57.167,13.308,36.027,36.607,41.200,4.593,295.3,542.3,291.3
2023-09-26T05:54:08,2420,42.8014,5.9826,4330,272,186.704,57.178,13.306,36.026,36.606,41.202,4.596,295.2,542.3,291.3
2023-09-26T05:57:08,2420,42.8014,5.9826,4330,272,186.649,57.160,13.306,36.030,36.610,41.205,4.596,295.3,542.3,291.4
2023-09-26T06:00:07,2420,42.8014,5.9826,4330,272,186.949,57.255,13.308,36.009,36.589,41.181,4.592,295.3,542.4,291.3
2023-09-26T06:03:07,2420,42.8014,5.9826,4330,272,186.781,57.202,13.307,36.021,36.601,41.194,4.593,295.3,542.3,291.3
2023-09-26T06:06:07,2420,42.8014,5.9826,4330,272,186.957,57.256,13.307,36.009,36.589,41.187,4.598,295.3,542.3,291.3
2023-09-26T06:09:07,2420,42.8014,5.9826,4330,272,186.808,57.211,13.308,36.018,36.598,41.188,4.590,295.3,542.4,291.3
2023-09-26T06:12:07,2420,42.8014,5.9826,4330,272,186.671,57.170,13.309,36.027,36.607,41.199,4.592,295.3,542.4,291.3
2023-09-26T06:15:07,2420,42.8014,5.9826,4330,272,186.727,57.185,13.306,36.024,36.604,41.198,4.594,295.3,542.3,291.3
2023-09-26T06:18:07,2420,42.8014,5.9826,4330,272,186.656,57.164,13.307,36.029,36.609,41.198,4.589,295.3,542.3,291.3
2023-09-26T06:21:08,2420,42.8014,5.9826,4330,272,186.613,57.151,13.307,36.031,36.611,41.205,4.594,295.2,542.3,291.3
2023-09-26T06:24:08,2420,42.8014,5.9826,4330,272,186.773,57.202,13.309,36.020,36.600,41.192,4.592,295.3,542.3,291.3
2023-09-26T06:27:08,2420,42.8014,5.9826,4330,272,186.756,57.197,13.309,36.021,36.601,41.197,4.596,295.3,542.3,291.3
2023-09-26T06:30:08,2420,42.8014,5.9826,4330,272,186.683,57.173,13.308,36.027,36.607,41.199,4.593,295.3,542.4,291.3
2023-09-26T06:33:07,2420,42.8014,5.9826,4330,272,186.757,57.195,13.307,36.022,36.602,41.196,4.595,295.3,542.4,291.3
2023-09-26T06:36:07,2420,42.8014,5.9826,4330,272,186.777,57.203,13.308,36.020,36.600,41.197,4.597,295.3,542.3,291.3
2023-09-26T06:39:07,2420,42.8014,5.9826,4330,272,186.528,57.132,13.313,36.034,36.614,41.204,4.590,295.3,542.3,291.1
2023-09-26T06:42:07,2420,42.8014,5.9826,4330,272,186.598,57.152,13.312,36.030,36.610,41.204,4.595,295.3,542.3,291.2
2023-09-26T06:45:07,2420,42.8014,5.9826,4330,272,186.602,57.151,13.310,36.031,36.611,41.204,4.593,295.3,542.4,291.2
2023-09-26T06:48:07,2420,42.8014,5.9826,4330,272,186.669,57.170,13.309,36.027,36.607,41.202,4.595,295.4,542.3,291.3
2023-09-26T06:51:07,2420,42.8014,5.9826,4330,272,186.756,57.194,13.307,36.022,36.602,41.193,4.591,295.3,542.3,291.3
2023-09-26T06:54:07,2420,42.8014,5.9826,4330,272,186.707,57.181,13.308,36.025,36.605,41.194,4.589,295.3,542.3,291.3
2023-09-26T06:57:07,2420,42.8014,5.9826,4330,272,186.678,57.169,13.306,36.028,36.608,41.204,4.596,295.3,542.3,291.4
2023-09-26T07:00:08,2420,42.8014,5.9826,4330,272,186.606,57.150,13.308,36.031,36.611,41.202,4.590,295.3,542.3,291.3
2023-09-26T07:03:07,2420,42.8014,5.9826,4330,272,186.663,57.173,13.312,36.026,36.606,41.199,4.593,295.3,542.3,291.1
2023-09-26T07:06:07,2420,42.8014,5.9826,4330,272,186.672,57.178,13.314,36.024,36.604,41.196,4.592,295.2,542.2,291.1
2023-09-26T07:09:07,2420,42.8014,5.9826,4330,272,186.414,57.091,13.308,36.044,36.624,41.214,4.590,295.3,542.3,291.3
2023-09-26T07:12:07,2420,42.8014,5.9826,4330,272,186.725,57.186,13.308,36.024,36.604,41.197,4.594,295.3,542.3,291.3
2023-09-26T07:15:07,2420,42.8014,5.9826,4330,272,186.574,57.142,13.309,36.033,36.613,41.205,4.593,295.3,542.3,291.2
2023-09-26T07:18:08,2420,42.8014,5.9826,4330,272,186.688,57.175,13.308,36.025,36.605,41.199,4.593,295.3,542.2,291.3
2023-09-26T07:21:08,2420,42.8014,5.9826,4330,272,186.593,57.149,13.310,36.031,36.611,41.204,4.593,295.2,542.3,291.2
2023-09-26T07:24:08,2420,42.8014,5.9826,4330,272,186.950,57.257,13.309,36.008,36.589,41.182,4.594,295.2,542.3,291.2
2023-09-26T07:27:08,2420,42.8014,5.9826,4330,272,186.682,57.181,13.314,36.024,36.604,41.195,4.592,295.3,542.3,291.1
2023-09-26T07:30:08,2420,42.8014,5.9826,4330,272,186.625,57.159,13.311,36.029,36.609,41.203,4.594,295.3,542.2,291.2
2023-09-26T07:33:07,2420,42.8014,5.9826,4330,272,186.799,57.210,13.309,36.019,36.599,41.187,4.588,295.3,542.3,291.3
2023-09-26T07:36:07,2420,42.8014,5.9826,4330,272,186.996,57.269,13.308,36.006,36.587,41.183,4.596,295.3,542.3,291.3
2023-09-26T07:39:07,2420,42.8014,5.9826,4330,272,186.742,57.192,13.309,36.022,36.602,41.194,4.592,295.2,542.3,291.3
2023-09-26T07:42:07,2420,42.8014,5.9826,4330,272,186.614,57.155,13.311,36.030,36.610,41.203,4.593,295.3,542.3,291.2
2023-09-26T07:45:07,2420,42.8014,5.9826,4330,272,186.797,57.211,13.311,36.018,36.598,41.191,4.592,295.2,542.3,291.2
2023-09-26T07:48:07,2420,42.8014,5.9826,4330,272,186.816,57.219,13.312,36.016,36.596,41.188,4.592,295.2,542.3,291.2
2023-09-26T07:51:08,2420,42.8014,5.9826,4330,272,186.791,57.208,13.309,36.019,36.599,41.191,4.592,295.4,542.3,291.3
2023-09-26T07:54:08,2420,42.8014,5.9826,4330,272,186.618,57.151,13.307,36.031,36.611,41.205,4.594,295.3,542.3,291.3
2023-09-26T07:57:08,2420,42.8014,5.9826,4330,272,186.717,57.181,13.306,36.025,36.605,41.194,4.589,295.3,542.5,291.4
2023-09-26T08:00:08,2420,42.8014,5.9826,4330,272,186.782,57.205,13.310,36.019,36.599,41.196,4.596,295.2,542.4,291.2
2023-09-26T08:03:07,2420,42.8014,5.9826,4330,272,186.737,57.197,13.314,36.020,36.600,41.192,4.592,295.3,542.3,291.1
2023-09-26T08:06:07,2420,42.8014,5.9826,4330,272,186.601,57.152,13.311,36.030,36.610,41.200,4.589,295.3,542.3,291.2
2023-09-26T08:09:07,2420,42.8014,5.9826,4330,272,186.527,57.125,13.307,36.037,36.617,41.204,4.588,295.4,542.3,291.3
2023-09-26T08:12:07,2420,42.8014,5.9826,4330,272,186.707,57.180,13.307,36.025,36.605,41.200,4.595,295.3,542.3,291.3
2023-09-26T08:15:07,2420,42.8014,5.9826,4330,272,186.783,57.202,13.307,36.020,36.600,41.197,4.596,295.2,542.3,291.3
2023-09-26T08:18:07,2420,42.8014,5.9826,4330,272,186.507,57.120,13.309,36.038,36.618,41.212,4.595,295.3,542.3,291.3
2023-09-26T08:21:07,2420,42.8014,5.9826,4330,272,186.778,57.205,13.310,36.019,36.600,41.196,4.597,295.3,542.4,291.2
2023-09-26T08:24:07,2420,42.8014,5.9826,4330,272,186.863,57.227,13.307,36.015,36.595,41.186,4.591,295.3,542.3,291.3
2023-09-26T08:27:07,2420,42.8014,5.9826,4330,272,186.768,57.215,13.320,36.015,36.595,41.187,4.592,295.2,542.3,290.9
2023-09-26T08:30:07,2420,42.8014,5.9826,4330,272,186.629,57.167,13.316,36.026,36.606,41.199,4.593,295.3,542.2,291.0
2023-09-26T08:33:07,2420,42.8014,5.9826,4330,272,186.609,57.156,13.312,36.029,36.609,41.200,4.591,295.3,542.3,291.2
2023-09-26T08:36:07,2420,42.8014,5.9826,4330,272,186.858,57.229,13.310,36.014,36.594,41.186,4.592,295.3,542.3,291.2
2023-09-26T08:39:08,2420,42.8014,5.9826,4330,272,186.617,57.153,13.308,36.030,36.610,41.200,4.590,295.3,542.3,291.3
2023-09-26T08:42:08,2420,42.8014,5.9826,4330,272,186.761,57.205,13.314,36.018,36.599,41.193,4.595,295.2,542.3,291.1
2023-09-26T08:45:08,2420,42.8014,5.9826,4330,272,186.791,57.213,13.313,36.017,36.597,41.194,4.597,295.3,542.3,291.1
2023-09-26T08:48:08,2420,42.8014,5.9826,4330,272,186.722,57.196,13.316,36.020,36.600,41.193,4.593,295.3,542.3,291.0
2023-09-26T08:51:08,2420,42.8014,5.9826,4330,272,186.631,57.165,13.314,36.027,36.607,41.204,4.596,295.3,542.3,291.1
2023-09-26T08:54:08,2420,42.8014,5.9826,4330,272,186.581,57.155,13.318,36.028,36.608,41.207,4.599,295.2,542.3,291.0
2023-09-26T08:57:08,2420,42.8014,5.9826,4330,272,186.791,57.210,13.311,36.018,36.598,41.193,4.595,295.3,542.3,291.2
2023-09-26T09:00:08,2420,42.8014,5.9826,4330,272,186.546,57.138,13.313,36.032,36.612,41.206,4.594,295.3,542.2,291.1
2023-09-26T09:03:07,2420,42.8014,5.9826,4330,272,186.649,57.167,13.311,36.027,36.607,41.203,4.595,295.3,542.3,291.2
2023-09-26T09:06:07,2420,42.8014,5.9826,4330,272,186.615,57.161,13.314,36.028,36.608,41.200,4.592,295.3,542.3,291.1
2023-09-26T09:09:07,2420,42.8014,5.9826,4330,272,186.782,57.207,13.311,36.019,36.599,41.191,4.592,295.2,542.3,291.2
2023-09-26T09:12:07,2420,42.8014,5.9826,4330,272,186.652,57.169,13.312,36.026,36.606,41.200,4.594,295.3,542.3,291.2
2023-09-26T09:15:07,2420,42.8014,5.9826,4330,272,186.896,57.243,13.312,36.011,36.591,41.187,4.596,295.3,542.3,291.2
2023-09-26T09:18:07,2420,42.8014,5.9826,4330,272,186.746,57.195,13.310,36.021,36.601,41.194,4.593,295.3,542.3,291.2
2023-09-26T09:21:08,2420,42.8014,5.9826,4330,272,186.687,57.186,13.317,36.021,36.602,41.192,4.590,295.3,542.3,291.0
2023-09-26T09:24:08,2420,42.8014,5.9826,4330,272,186.509,57.125,13.312,36.035,36.615,41.207,4.592,295.2,542.3,291.2
2023-09-26T09:27:08,2420,42.8014,5.9826,4330,272,186.831,57.224,13.312,36.014,36.595,41.187,4.592,295.3,542.3,291.2
2023-09-26T09:30:08,2420,42.8014,5.9826,4330,272,186.648,57.182,13.323,36.021,36.601,41.192,4.591,295.2,542.3,290.8
2023-09-26T09:33:07,2420,42.8014,5.9826,4330,272,186.619,57.159,13.312,36.028,36.608,41.208,4.599,295.3,542.2,291.2
2023-09-26T09:36:07,2420,42.8014,5.9826,4330,272,186.587,57.155,13.317,36.028,36.608,41.198,4.589,295.3,542.3,291.0
2023-09-26T09:39:07,2420,42.8014,5.9826,4330,272,186.740,57.195,13.311,36.021,36.601,41.195,4.594,295.4,542.3,291.2
2023-09-26T09:42:07,2420,42.8014,5.9826,4330,272,186.798,57.213,13.312,36.017,36.598,41.190,4.593,295.3,542.3,291.2
2023-09-26T09:45:07,2420,42.8014,5.9826,4330,272,186.813,57.217,13.311,36.016,36.597,41.195,4.598,295.3,542.3,291.2
2023-09-26T09:48:07,2420,42.8014,5.9826,4330,272,186.554,57.138,13.312,36.033,36.613,41.206,4.593,295.2,542.3,291.2
2023-09-26T09:51:07,2420,42.8014,5.9826,4330,272,186.578,57.148,13.314,36.031,36.611,41.203,4.593,295.3,542.3,291.1
2023-09-26T09:54:07,2420,42.8014,5.9826,4330,272,186.539,57.135,13.313,36.034,36.614,41.207,4.594,295.3,542.3,291.1
2023-09-26T09:57:07,2420,42.8014,5.9826,4330,272,186.656,57.169,13.311,36.027,36.607,41.201,4.594,295.3,542.3,291.2
2023-09-26T10:00:08,2420,42.8014,5.9826,4330,272,186.662,57.172,13.312,36.026,36.606,41.200,4.594,295.3,542.3,291.2